Date,TemperatureHighF,TemperatureAvgF,TemperatureLowF,DewpointHighF,DewpointAvgF,DewpointLowF,HumidityHigh,HumidityAvg,HumidityLow,PressureMaxIn,PressureMinIn,WindSpeedMaxMPH,WindSpeedAvgMPH,GustSpeedMaxMPH,PrecipitationSumIn
2013-1-1,38,32,25,36,30,24,95,95,93,30.27,30.03,9,1,0,0.01
2013-1-2,35,27,22,27,22,19,93,83,59,30.31,30.20,6,0,0,0.00
2013-1-3,43,30,20,31,24,18,93,80,52,30.47,30.29,6,0,0,0.00
2013-1-4,47,34,21,29,25,19,92,71,42,30.50,30.34,7,0,0,0.00
2013-1-5,43,37,28,35,30,22,89,77,71,30.34,30.18,11,1,0,0.00
2013-1-6,37,30,24,32,25,20,93,81,52,30.38,30.24,10,0,0,0.00
2013-1-7,52,37,23,31,25,19,89,66,40,30.37,30.12,12,1,0,0.00
2013-1-8,59,43,28,45,35,23,94,75,54,30.18,30.02,11,1,0,0.19
2013-1-9,54,50,46,48,44,39,96,83,61,30.34,30.18,14,1,0,0.05
2013-1-10,56,50,46,54,47,40,95,90,68,30.19,29.79,12,1,0,0.14
2013-1-11,66,55,45,48,46,43,93,73,47,29.86,29.70,16,3,0,0.00
2013-1-12,58,44,30,51,38,28,93,81,50,29.96,29.77,14,2,0,0.33
2013-1-13,30,24,15,28,20,12,93,87,77,30.40,29.96,13,2,0,0.00
2013-1-14,35,22,12,19,14,9,91,75,45,30.52,30.36,7,0,0,0.00
2013-1-15,34,25,15,23,18,12,90,75,51,30.37,30.19,6,0,0,0.00
2013-1-16,43,28,14,23,19,12,92,70,41,30.24,30.12,8,0,0,0.00
2013-1-17,48,35,26,34,27,19,86,72,50,30.50,30.21,10,1,0,0.00
2013-1-18,57,40,23,34,28,20,92,66,35,30.52,30.19,11,2,0,0.00
2013-1-19,62,49,39,39,34,28,80,56,40,30.19,30.04,14,3,0,0.00
2013-1-20,61,43,30,38,30,20,88,62,39,30.27,30.10,11,1,0,0.00
2013-1-21,39,28,21,21,17,14,76,62,41,30.41,30.26,7,1,0,0.00
2013-1-22,47,31,20,28,21,15,85,67,46,30.35,30.22,9,0,0,0.00
2013-1-23,61,42,26,45,34,22,92,75,52,30.27,30.13,8,1,0,0.00
2013-1-24,43,38,33,35,23,18,78,56,44,30.33,30.12,13,1,0,0.00
2013-1-25,51,38,30,36,31,27,93,77,51,30.26,30.12,6,0,0,0.00
2013-1-26,61,45,31,30,26,22,86,53,24,30.27,30.11,11,1,0,0.00
2013-1-27,59,54,46,55,47,31,89,80,53,30.11,29.89,16,3,0,0.00
2013-1-28,72,66,59,62,60,56,89,81,69,29.93,29.76,15,5,0,0.00
2013-1-29,68,60,47,63,57,46,95,88,79,29.75,29.43,21,4,0,1.87
2013-1-30,47,34,24,46,30,20,95,86,76,30.09,29.47,16,4,0,0.01
2013-1-31,48,30,20,31,23,12,92,75,50,30.45,30.05,14,2,0,0.00
2013-2-1,45,27,13,21,13,8,84,58,35,30.50,30.20,10,1,0,0.00
2013-2-2,54,39,24,32,27,18,86,63,41,30.27,30.18,9,0,0,0.00
2013-2-3,53,44,36,31,27,22,77,52,31,30.28,29.96,11,0,0,0.00
2013-2-4,61,49,36,47,38,27,87,65,45,29.96,29.79,13,2,13,0.23
2013-2-5,66,45,29,50,34,27,95,69,32,30.05,29.90,12,1,12,0.00
2013-2-6,64,50,35,43,37,31,88,64,43,30.12,29.92,10,2,11,0.00
2013-2-7,56,51,43,53,48,40,98,89,80,30.07,29.84,14,2,14,0.11
2013-2-8,53,41,34,40,33,30,88,75,47,30.30,30.07,11,2,11,0.00
2013-2-9,49,40,33,43,34,30,94,81,49,30.22,29.83,10,2,11,0.12
2013-2-10,60,52,41,53,40,27,95,66,34,30.03,29.63,20,4,0,0.32
2013-2-11,55,40,29,30,26,22,84,59,32,30.19,30.03,8,0,0,0.00
2013-2-12,46,37,28,35,30,24,93,76,53,30.15,29.92,7,0,0,0.09
2013-2-13,51,40,33,39,34,31,95,79,49,30.03,29.92,11,1,0,0.10
2013-2-14,58,45,34,37,33,29,83,63,44,30.15,29.95,9,1,0,0.00
2013-2-15,43,35,24,31,22,15,80,60,35,30.34,30.15,10,2,0,0.00
2013-2-16,37,32,24,25,21,16,85,66,48,30.36,30.15,12,1,0,0.00
2013-2-17,63,47,30,35,27,17,65,47,32,30.14,29.79,14,2,0,0.00
2013-2-18,58,51,34,52,40,26,87,68,41,30.11,29.56,21,7,0,0.06
2013-2-19,47,35,24,26,21,18,80,59,38,30.33,30.11,15,2,0,0.00
2013-2-20,35,31,25,31,23,15,89,71,51,30.34,30.08,10,1,0,0.06
2013-2-21,37,33,29,36,30,25,100,91,83,30.10,29.70,14,2,0,0.38
2013-2-22,39,30,22,33,23,19,92,76,53,30.14,29.87,13,2,0,0.02
2013-2-23,46,30,18,26,22,16,92,72,45,30.14,29.97,7,0,0,0.00
2013-2-24,59,42,27,36,31,24,93,68,38,30.00,29.83,13,1,0,0.00
2013-2-25,42,38,33,39,33,29,93,82,63,29.86,29.42,10,1,10,0.34
2013-2-26,36,34,32,34,32,31,100,94,93,29.89,29.37,14,2,14,0.08
2013-2-27,40,34,32,33,30,27,93,85,72,30.09,29.87,20,3,20,0.06
2013-2-28,37,33,29,29,27,25,90,80,69,30.21,30.08,11,1,11,0.00
2013-3-1,34,30,27,27,23,20,86,76,66,30.29,30.17,13,2,13,0.00
2013-3-2,40,30,24,25,21,17,92,70,43,30.35,30.24,11,1,11,0.00
2013-3-3,58,42,23,34,27,19,87,59,36,30.23,29.76,11,2,11,0.00
2013-3-4,65,54,43,47,40,32,84,61,48,29.81,29.56,15,2,15,0.00
2013-3-5,45,39,31,35,27,21,92,65,44,30.33,29.82,18,5,18,0.08
2013-3-6,49,36,24,28,23,18,81,61,39,30.42,30.24,12,1,12,0.00
2013-3-7,63,48,35,32,28,25,73,48,23,30.26,30.12,10,1,10,0.00
2013-3-8,62,52,41,41,35,32,74,56,40,30.23,30.01,11,2,11,0.00
2013-3-9,69,59,52,57,47,37,95,66,47,30.01,29.64,14,3,14,1.37
2013-3-10,56,44,30,55,42,28,95,93,83,29.95,29.61,18,3,18,0.60
2013-3-11,45,34,28,30,26,22,92,73,42,30.06,29.92,14,2,14,0.01
2013-3-12,57,42,28,33,28,22,89,60,32,30.32,30.04,16,2,16,0.00
2013-3-13,52,38,26,24,21,17,82,53,27,30.48,30.32,9,0,9,0.00
2013-3-14,71,53,33,44,34,22,70,51,36,30.35,30.07,16,2,16,0.00
2013-3-15,78,64,46,50,46,41,85,54,32,30.07,29.72,12,3,12,0.00
2013-3-16,76,62,48,53,46,40,72,56,42,29.81,29.69,13,1,13,0.00
2013-3-17,48,44,41,42,40,38,95,88,71,29.86,29.66,12,1,12,0.13
2013-3-18,48,43,34,44,37,27,96,79,48,30.07,29.67,4,0,7,0.01
2013-3-19,56,43,30,32,26,18,88,55,25,30.26,30.03,12,1,0,0.00
2013-3-20,49,37,26,32,23,16,92,61,30,30.37,30.10,13,2,0,0.00
2013-3-21,44,35,30,33,24,12,93,70,29,30.10,29.82,11,2,0,0.20
2013-3-22,39,36,33,37,35,31,100,93,92,29.94,29.83,7,1,0,0.28
2013-3-23,41,38,36,39,37,35,100,95,94,29.92,29.71,6,1,0,0.02
2013-3-24,41,33,27,40,30,22,96,89,73,30.15,29.63,21,4,0,0.05
2013-3-25,34,29,24,25,22,19,84,76,63,30.37,30.12,19,3,0,0.00
2013-3-26,45,33,22,27,23,19,92,68,43,30.45,30.33,10,1,0,0.00
2013-3-27,59,44,27,32,27,22,90,57,27,30.33,30.13,12,1,0,0.00
2013-3-28,69,57,45,50,41,30,71,56,47,30.19,30.08,14,2,0,0.00
2013-3-29,68,58,52,56,52,48,94,80,57,30.17,30.05,8,0,0,0.37
2013-3-30,69,59,53,58,54,51,95,85,64,30.07,29.84,10,1,0,0.58
2013-3-31,69,57,45,54,46,38,96,72,34,29.96,29.81,11,1,0,0.07
2013-4-1,64,48,38,45,39,33,94,74,45,30.17,29.95,12,1,0,0.01
2013-4-2,42,38,36,37,35,33,94,91,73,30.28,30.16,7,0,0,0.44
2013-4-3,51,43,35,38,30,26,90,62,40,30.26,30.15,16,1,0,0.14
2013-4-4,58,46,38,40,36,32,93,71,41,30.15,30.05,9,0,0,0.02
2013-4-5,69,51,31,41,35,28,94,59,29,30.19,29.94,9,1,0,0.00
2013-4-6,73,63,55,50,45,36,67,52,40,29.94,29.75,19,4,0,0.00
2013-4-7,75,64,52,59,54,48,92,72,52,29.87,29.70,17,2,0,0.00
2013-4-8,70,65,60,61,58,55,92,79,68,29.76,29.66,13,2,0,0.12
2013-4-9,78,70,62,65,60,56,83,70,55,29.73,29.65,12,3,0,0.00
2013-4-10,74,49,37,64,46,36,95,90,69,29.88,29.65,17,2,0,0.52
2013-4-11,52,40,34,37,33,31,95,78,47,29.90,29.75,13,2,0,0.01
2013-4-12,58,45,34,38,33,29,89,66,43,30.02,29.81,13,1,0,0.00
2013-4-13,68,55,39,48,42,34,90,64,45,30.05,29.76,10,1,0,0.01
2013-4-14,78,68,54,54,49,46,73,53,38,29.77,29.48,18,3,0,0.00
2013-4-15,78,68,56,66,59,51,86,74,63,29.78,29.61,16,1,0,0.00
2013-4-16,79,62,52,65,56,49,93,82,60,29.95,29.77,9,0,0,0.00
2013-4-17,82,70,56,70,63,54,95,78,59,29.92,29.56,20,3,0,0.00
2013-4-18,75,50,38,66,45,30,95,86,70,30.00,29.48,17,3,0,3.61
2013-4-19,56,43,34,35,29,27,80,60,36,30.11,29.99,14,2,0,0.00
2013-4-20,68,50,34,41,36,32,94,63,31,30.19,30.08,7,0,0,0.00
2013-4-21,68,57,46,44,40,36,79,55,32,30.24,30.08,15,1,0,0.00
2013-4-22,71,59,44,47,42,38,84,57,36,30.16,29.87,11,1,0,0.00
2013-4-23,61,50,36,55,45,35,94,84,63,30.10,29.76,9,1,0,0.11
2013-4-24,56,43,34,35,32,25,94,68,32,30.33,30.10,11,1,0,0.01
2013-4-25,69,52,30,41,33,28,93,55,26,30.37,30.18,7,0,0,0.00
2013-4-26,58,52,47,49,45,36,96,81,44,30.28,30.09,7,0,9,0.72
2013-4-27,52,51,50,51,50,49,96,96,95,30.11,29.99,6,0,10,0.49
2013-4-28,76,60,50,55,51,48,97,76,38,30.02,29.83,6,0,10,0.00
2013-4-29,83,69,50,63,55,48,96,66,37,29.87,29.71,11,1,11,0.00
2013-4-30,80,73,61,57,52,46,80,50,31,29.82,29.73,10,2,10,0.00
2013-5-1,82,69,56,66,58,50,90,69,47,30.01,29.82,9,0,10,0.00
2013-5-2,63,48,34,58,45,32,94,89,81,30.27,29.99,13,2,13,0.35
2013-5-3,44,38,33,40,35,32,95,91,67,30.25,29.95,11,1,11,0.34
2013-5-4,44,39,35,40,36,33,95,90,81,30.01,29.85,7,0,10,0.18
2013-5-5,62,48,35,49,43,34,95,82,58,30.09,30.01,9,1,10,0.00
2013-5-6,64,54,47,54,50,45,94,86,70,30.08,29.99,9,0,10,0.00
2013-5-7,76,60,43,58,50,42,96,73,41,30.07,29.95,4,0,10,0.00
2013-5-8,79,65,52,62,56,50,95,74,45,30.03,29.85,7,0,10,0.00
2013-5-9,76,65,59,63,59,56,95,84,59,29.94,29.83,10,1,10,1.75
2013-5-10,69,63,53,63,58,50,97,84,68,30.04,29.90,9,1,0,0.01
2013-5-11,73,58,46,57,48,37,96,71,38,30.18,30.02,10,1,0,0.00
2013-5-12,68,53,36,51,40,33,95,67,30,30.26,30.13,13,0,0,0.00
2013-5-13,80,64,46,59,51,44,94,66,41,30.15,29.99,11,1,0,0.00
2013-5-14,86,74,62,61,55,50,68,53,32,30.01,29.89,12,1,0,0.00
2013-5-15,75,68,64,67,60,51,95,77,55,29.94,29.81,13,1,0,0.30
2013-5-16,69,64,60,65,62,58,96,92,84,29.84,29.78,4,0,0,0.01
2013-5-17,81,68,57,67,62,56,97,83,57,29.89,29.81,5,0,0,0.00
2013-5-18,82,73,63,74,69,62,96,86,73,29.87,29.73,13,0,0,0.00
2013-5-19,87,78,71,70,66,62,93,70,45,29.77,29.57,12,2,0,0.06
2013-5-20,77,72,65,70,66,61,94,83,72,29.76,29.64,15,1,0,0.03
2013-5-21,62,62,61,60,60,59,95,94,93,29.85,29.72,4,0,14,0.17
2013-5-22,74,66,54,62,58,53,97,77,57,29.91,29.78,9,1,0,0.00
2013-5-23,74,63,53,63,58,52,96,83,62,30.11,29.91,3,0,0,0.00
2013-5-24,77,65,56,64,57,52,91,76,60,30.25,30.11,5,0,0,0.00
2013-5-25,83,69,57,68,60,51,89,72,56,30.19,30.00,10,1,0,0.00
2013-5-26,80,72,62,68,64,60,95,77,58,30.07,29.92,14,1,0,0.00
2013-5-27,82,74,68,69,66,60,91,76,58,29.93,29.74,18,2,0,0.00
2013-5-28,81,75,71,67,65,62,83,72,59,29.82,29.70,20,3,0,0.01
2013-5-29,79,74,68,68,65,63,87,75,66,29.83,29.68,13,1,0,0.00
2013-5-30,79,70,62,70,65,60,95,84,65,29.81,29.67,14,1,0,0.62
2013-5-31,84,74,62,74,69,61,95,85,68,29.76,29.65,9,0,3,0.01
2013-6-1,77,68,59,72,64,56,96,85,65,29.95,29.58,18,0,18,0.49
2013-6-2,67,60,52,60,55,50,96,86,71,30.02,29.93,0,0,3,0.00
2013-6-3,77,63,46,62,56,44,96,79,52,30.04,29.86,0,0,3,0.00
2013-6-4,77,67,61,68,62,58,93,85,70,29.95,29.84,0,0,0,0.00
2013-6-5,78,68,61,70,64,59,95,87,69,29.98,29.80,0,0,0,0.23
2013-6-6,73,64,56,65,60,54,96,86,67,29.91,29.84,0,0,0,0.00
2013-6-7,76,62,50,60,55,48,95,79,50,29.95,29.86,0,0,0,0.00
2013-6-8,79,66,51,64,57,49,96,76,52,29.92,29.79,0,0,0,0.00
2013-6-9,82,71,62,68,62,59,94,75,49,29.84,29.78,9,0,0,0.04
2013-6-10,89,77,64,73,66,59,87,71,44,29.87,29.79,10,1,0,0.00
2013-6-11,90,81,72,72,69,65,82,67,45,29.93,29.83,11,1,0,0.00
2013-6-12,88,81,74,72,70,67,85,71,52,29.91,29.81,19,2,0,0.00
2013-6-13,88,77,68,73,69,65,94,77,49,29.95,29.86,6,0,0,0.00
2013-6-14,89,77,66,78,71,64,94,81,65,29.97,29.84,5,0,0,0.00
2013-6-15,87,76,69,75,69,65,94,82,63,29.98,29.87,12,0,0,0.17
2013-6-16,86,75,68,77,70,64,96,84,66,29.95,29.83,8,0,0,0.01
2013-6-17,72,68,65,70,66,63,95,93,88,29.93,29.82,4,0,0,0.17
2013-6-18,83,71,62,71,65,60,96,83,56,29.98,29.90,3,0,0,0.00
2013-6-19,85,73,60,71,64,59,96,78,54,30.00,29.91,5,0,0,0.00
2013-6-20,88,76,64,74,68,61,94,78,59,30.01,29.92,6,1,0,0.00
2013-6-21,90,81,72,75,72,69,90,75,54,30.00,29.92,11,1,0,0.00
2013-6-22,87,79,72,74,71,68,89,76,57,29.99,29.86,8,1,0,0.00
2013-6-23,88,79,69,74,70,67,94,75,54,29.94,29.84,11,1,0,0.00
2013-6-24,88,80,71,74,70,67,87,73,56,29.98,29.86,10,1,0,0.00
2013-6-25,87,80,75,72,70,67,84,71,54,29.90,29.76,11,2,0,0.00
2013-6-26,92,81,73,78,72,70,92,76,59,29.86,29.75,13,1,0,0.00
2013-6-27,96,86,71,79,74,68,95,70,50,29.90,29.78,7,0,0,0.00
2013-6-28,89,81,68,76,69,60,90,70,45,29.86,29.74,9,1,0,0.00
2013-6-29,85,72,60,65,58,55,92,65,38,29.83,29.74,13,2,0,0.00
2013-6-30,78,67,59,63,59,55,92,77,56,29.92,29.78,11,1,0,0.00
2013-7-1,81,67,56,63,56,52,94,71,40,30.00,29.92,10,1,0,0.00
2013-7-2,81,65,51,60,54,49,94,69,37,30.05,29.98,7,0,0,0.00
2013-7-3,83,68,52,62,54,49,94,67,35,30.07,29.95,5,0,0,0.00
2013-7-4,85,70,56,66,58,53,92,69,39,30.02,29.91,4,0,0,0.00
2013-7-5,89,74,59,65,60,56,92,64,36,29.99,29.86,5,0,0,0.00
2013-7-6,88,73,63,70,62,59,89,71,41,29.97,29.88,3,0,0,0.00
2013-7-7,90,77,67,70,65,60,91,69,39,29.99,29.92,5,0,0,0.00
2013-7-8,92,78,68,72,68,64,92,72,46,30.03,29.94,9,0,0,0.00
2013-7-9,93,82,72,72,70,68,88,68,47,30.02,29.88,9,1,0,0.00
2013-7-10,98,84,71,73,70,66,86,64,40,29.95,29.81,5,0,0,0.00
2013-7-11,95,79,70,75,69,61,93,73,41,29.94,29.85,7,0,0,0.00
2013-7-12,92,77,68,71,65,60,83,66,45,29.99,29.90,5,0,0,0.00
2013-7-13,88,74,60,66,61,56,90,66,41,30.00,29.89,5,0,0,0.00
2013-7-14,87,75,62,64,60,55,90,62,34,30.00,29.90,5,0,0,0.00
2013-7-15,90,77,68,70,66,63,91,71,43,30.11,29.98,5,0,0,0.00
2013-7-16,87,75,67,73,69,65,94,82,56,30.20,30.10,5,0,0,0.01
2013-7-17,93,79,66,73,68,64,95,71,42,30.26,30.11,6,0,0,0.00
2013-7-18,94,80,67,73,68,64,94,70,43,30.15,29.95,6,0,0,0.00
2013-7-19,95,79,69,72,68,65,91,71,42,29.98,29.86,6,0,0,0.00
2013-7-20,93,77,68,73,69,65,93,78,47,29.91,29.75,12,1,0,0.50
2013-7-21,81,73,68,77,71,66,94,92,82,29.90,29.77,5,0,0,0.18
2013-7-22,86,74,66,76,69,63,94,85,66,29.93,29.77,5,0,0,1.36
2013-7-23,94,83,69,79,74,66,93,75,55,29.85,29.71,7,0,0,1.02
2013-7-24,85,75,67,74,69,65,94,84,65,29.96,29.79,7,1,0,0.47
2013-7-25,85,74,65,73,68,62,94,82,60,30.03,29.96,2,0,0,0.00
2013-7-26,72,71,66,70,68,64,94,91,86,30.00,29.93,7,0,0,0.72
2013-7-27,68,65,63,66,64,61,95,94,93,30.01,29.96,3,0,0,0.00
2013-7-29,84,78,68,74,71,65,92,80,68,30.01,29.91,10,1,0,0.00
2013-7-30,86,77,70,76,72,68,94,86,68,29.99,29.92,6,0,0,2.05
2013-7-31,86,78,71,77,73,68,94,84,67,29.99,29.92,9,0,0,0.00
2013-8-1,86,74,64,73,68,62,95,82,57,30.04,29.92,3,0,0,0.00
2013-8-2,86,77,70,78,72,67,93,85,74,29.93,29.81,7,0,0,0.00
2013-8-3,85,77,68,78,73,66,94,87,70,30.05,29.81,13,0,0,3.10
2013-8-4,75,73,72,73,71,69,94,93,89,30.07,29.94,4,0,0,0.15
2013-8-5,90,79,71,80,74,69,94,85,66,29.98,29.77,8,0,0,0.02
2013-8-6,90,81,72,81,75,69,93,83,66,29.85,29.73,6,0,0,0.09
2013-8-7,88,80,73,82,75,71,93,86,71,29.89,29.73,5,0,0,0.18
2013-8-8,82,74,67,76,70,66,95,90,75,29.94,29.77,22,0,0,3.22
2013-8-9,83,74,70,75,71,68,94,88,72,29.98,29.84,4,0,0,0.07
2013-8-10,83,75,69,74,70,67,94,86,73,30.05,29.97,5,0,0,0.00
2013-8-11,86,76,69,77,72,67,94,87,65,30.04,29.95,3,0,0,0.00
2013-8-12,81,73,70,73,70,68,93,90,73,30.02,29.88,2,0,0,0.00
2013-8-13,77,72,65,74,69,63,94,93,86,30.01,29.92,3,0,0,0.06
2013-8-14,78,68,59,66,62,56,96,83,60,30.10,30.01,7,0,0,0.00
2013-8-15,77,64,54,63,57,52,94,81,51,30.11,29.99,2,0,0,0.00
2013-8-16,77,66,59,64,60,56,94,82,61,30.09,29.99,4,0,0,0.00
2013-8-17,78,65,54,66,60,52,94,83,60,30.12,30.02,3,0,0,0.00
2013-8-18,82,69,58,68,62,56,94,80,48,30.10,30.01,2,0,0,0.00
2013-8-19,84,71,61,69,64,59,94,79,49,30.08,29.96,4,0,0,0.00
2013-8-20,85,72,61,71,65,59,94,80,53,30.05,29.96,3,0,0,0.00
2013-8-21,89,75,62,74,67,60,93,79,49,30.07,29.99,11,0,0,0.00
2013-8-22,89,76,64,76,69,62,93,80,51,30.07,29.96,3,0,0,0.00
2013-8-23,89,76,65,74,69,63,94,80,49,30.03,29.94,1,0,0,0.00
2013-8-24,89,77,68,75,70,66,93,81,56,30.09,29.98,4,0,0,0.00
2013-8-25,90,78,68,76,71,66,93,80,51,30.16,30.06,4,0,0,0.00
2013-8-26,89,77,69,77,71,67,93,81,59,30.15,30.03,4,0,0,0.00
2013-8-27,89,76,65,73,67,63,93,78,51,30.08,29.97,4,0,0,0.00
2013-8-28,90,77,65,75,69,63,93,78,52,30.03,29.95,5,0,0,0.00
2013-8-29,93,79,68,77,71,66,93,78,50,30.02,29.92,4,0,0,0.00
2013-8-30,93,80,70,76,71,68,93,77,49,29.96,29.81,5,0,0,0.00
2013-8-31,96,80,69,79,71,67,93,76,45,29.86,29.74,7,0,0,0.00
2013-9-1,87,76,71,76,70,68,91,83,57,29.85,29.73,6,0,0,0.01
2013-9-2,84,73,63,69,66,60,92,78,54,29.94,29.83,5,0,0,0.00
2013-9-3,86,70,57,67,61,54,93,76,43,30.02,29.94,3,0,0,0.00
2013-9-4,86,70,57,67,61,55,93,76,44,30.11,30.00,6,0,0,0.00
2013-9-5,86,71,59,68,62,56,92,76,43,30.15,30.05,2,0,0,0.00
2013-9-6,88,72,59,69,63,56,93,76,48,30.10,29.96,3,0,0,0.00
2013-9-7,67,66,66,63,63,62,89,88,88,29.98,29.97,0,0,0,0.00
2013-9-8,88,77,71,75,70,67,86,79,64,29.88,29.83,0,0,0,0.00
2013-9-9,92,78,65,74,66,62,89,70,41,29.95,29.86,10,0,0,0.00
2013-9-10,93,77,64,70,65,60,89,70,35,30.08,29.93,5,0,0,0.00
2013-9-11,90,77,66,74,68,63,89,76,47,30.10,29.99,3,0,0,0.00
2013-9-12,90,76,66,73,68,62,90,77,52,30.06,29.93,11,0,0,0.00
2013-9-13,82,70,55,67,58,51,87,68,39,30.04,29.93,5,0,0,0.00
2013-9-14,79,63,50,60,53,47,90,73,41,30.06,29.95,5,0,0,0.00
2013-9-15,87,71,57,71,60,52,87,69,47,30.02,29.94,6,0,0,0.00
2013-9-16,76,70,66,71,66,62,89,87,82,30.14,29.99,2,0,0,0.07
2013-9-17,78,70,66,69,65,62,89,85,70,30.09,30.05,4,0,0,0.00
2013-9-18,87,79,68,71,68,64,87,71,54,29.98,29.87,6,0,0,0.00
2013-9-19,90,77,68,70,68,64,88,74,50,29.93,29.81,12,0,0,0.17
2013-9-20,72,65,55,68,62,52,90,87,75,29.94,29.85,9,0,0,1.61
2013-9-21,75,59,46,57,50,43,92,76,44,30.00,29.90,7,0,0,0.00
2013-9-22,76,59,46,56,50,43,90,75,43,29.97,29.84,5,0,0,0.01
2013-9-23,79,62,48,58,53,45,94,73,45,29.91,29.76,4,0,0,0.00
2013-9-24,77,66,56,62,58,53,90,76,54,29.85,29.79,6,0,0,0.00
2013-9-25,80,65,52,65,58,50,90,80,54,29.85,29.77,4,0,0,0.00
2013-9-26,84,68,56,65,60,53,90,76,45,29.91,29.80,3,0,0,0.00
2013-9-27,83,70,60,66,61,57,90,74,50,29.97,29.86,6,0,0,0.00
2013-9-28,80,69,61,69,63,58,90,81,67,30.00,29.84,12,0,0,1.17
2013-9-29,76,63,54,61,56,51,92,81,53,30.04,29.90,4,0,0,0.02
2013-9-30,80,67,56,67,61,52,92,82,59,29.91,29.80,5,0,0,0.00
2013-10-1,84,72,63,70,66,60,90,81,59,29.94,29.83,7,0,0,0.00
2013-10-2,82,72,64,72,66,61,90,84,66,29.97,29.85,10,0,0,0.01
2013-10-3,84,73,65,71,67,62,90,81,64,29.89,29.78,13,1,0,0.00
2013-10-4,83,74,67,72,67,63,89,79,63,29.87,29.79,11,1,0,0.00
2013-10-5,71,57,47,68,54,44,90,89,87,30.03,29.82,11,0,0,1.36
2013-10-6,62,52,43,48,45,40,91,78,58,30.01,29.95,11,0,0,0.01
2013-10-7,71,54,40,53,46,38,92,76,45,30.13,29.99,5,0,0,0.00
2013-10-8,72,56,45,55,48,42,90,76,44,30.15,30.02,9,0,0,0.00
2013-10-9,75,58,44,57,49,42,90,76,44,30.10,30.01,3,0,0,0.00
2013-10-10,76,61,48,60,53,45,90,78,52,30.08,29.89,7,0,0,0.00
2013-10-11,76,64,53,66,59,50,92,84,70,29.91,29.82,14,1,0,0.00
2013-10-12,68,64,58,64,60,55,89,88,83,30.13,29.84,8,0,0,0.33
2013-10-13,72,61,55,58,53,49,89,75,55,30.29,30.14,6,0,0,0.00
2013-10-14,67,60,55,62,55,49,89,83,70,30.23,29.94,6,0,0,0.16
2013-10-15,65,59,51,62,56,48,90,89,85,30.04,29.84,6,0,0,0.08
2013-10-16,62,51,41,48,45,38,90,79,57,30.11,29.98,9,0,0,0.00
2013-10-17,64,50,41,49,44,38,90,80,54,30.06,29.96,4,0,0,0.01
2013-10-18,60,48,38,52,44,35,92,85,68,30.07,29.95,7,0,0,0.15
2013-10-19,59,45,36,42,38,33,94,79,47,30.15,30.02,13,0,0,0.05
2013-10-20,67,52,40,48,42,37,89,71,38,30.03,29.86,13,0,0,0.00
2013-10-21,55,47,37,50,43,34,90,84,69,30.11,29.92,8,0,0,0.00
2013-10-22,66,49,34,49,40,32,90,73,49,30.11,29.93,15,1,0,0.01
2013-10-23,63,46,34,44,38,31,92,76,41,30.19,30.01,3,0,0,0.00
2013-10-24,55,43,33,39,36,29,90,77,46,30.42,30.08,13,1,0,0.00
2013-10-25,59,44,31,37,31,28,92,66,34,30.50,30.21,9,0,0,0.00
2013-10-26,64,54,44,55,47,34,88,77,68,30.21,30.07,10,0,0,0.00
2013-10-27,66,50,40,51,42,36,90,78,35,30.09,29.97,2,0,0,0.00
2013-10-28,68,58,48,56,52,45,90,82,61,30.15,30.00,8,0,0,0.00
2013-10-29,70,64,57,64,60,54,89,87,82,30.08,29.93,13,1,0,0.10
2013-10-30,67,65,62,63,61,58,90,88,87,29.99,29.73,6,0,0,1.66
2013-10-31,72,60,49,64,56,46,90,85,46,29.74,29.43,13,1,0,0.26
2013-11-1,68,53,43,49,43,40,90,72,38,29.98,29.74,11,0,0,0.01
2013-11-2,57,46,35,42,38,32,89,75,50,30.23,29.98,10,1,0,0.00
2013-11-3,62,47,32,42,38,30,90,71,46,30.23,30.00,10,1,0,0.00
2013-11-4,58,54,51,51,47,42,87,76,68,30.13,29.98,12,2,0,0.00
2013-11-5,62,58,54,59,55,50,92,89,88,30.12,29.91,7,1,0,0.44
2013-11-6,62,45,32,59,42,29,95,88,80,30.38,29.84,10,1,0,0.28
2013-11-7,62,43,28,43,34,26,92,74,39,30.46,30.34,9,0,0,0.00
2013-11-8,64,50,35,42,38,32,90,66,35,30.35,30.07,16,2,0,0.00
2013-11-9,64,53,42,47,43,38,87,69,49,30.26,30.08,9,0,0,0.00
2013-11-10,66,54,43,46,43,40,89,70,42,30.36,30.24,7,0,0,0.00
2013-11-11,66,54,42,54,47,38,87,78,60,30.38,30.15,13,1,0,0.00
2013-11-12,42,33,22,38,22,17,87,67,41,30.75,30.40,13,2,0,0.00
2013-11-13,50,34,19,24,20,16,89,61,32,30.73,30.33,10,1,0,0.00
2013-11-14,53,41,24,35,25,20,86,55,32,30.33,30.02,13,2,0,0.00
2013-11-15,59,50,43,49,43,34,88,77,63,30.03,29.84,12,2,0,0.05
2013-11-16,70,63,52,64,58,49,88,82,69,29.83,29.56,16,5,0,0.00
2013-11-17,72,66,52,65,46,24,84,53,27,30.04,29.49,18,4,0,0.00
2013-11-18,64,49,35,40,30,24,87,51,23,30.26,30.03,10,1,0,0.00
2013-11-19,59,50,38,34,28,19,72,46,29,30.25,30.03,9,2,0,0.00
2013-11-20,61,53,44,40,28,14,56,39,24,30.04,29.87,12,2,0,0.01
2013-11-21,57,50,43,48,46,40,92,86,55,30.25,29.94,14,1,0,0.62
2013-11-22,42,33,31,40,30,29,90,90,89,30.54,30.26,13,3,0,0.00
2013-11-23,38,32,24,29,23,14,90,71,47,30.69,30.53,13,3,0,0.00
2013-11-24,31,26,19,18,15,13,79,65,52,30.72,30.37,6,1,0,0.00
2013-11-25,36,34,30,31,25,16,87,73,49,30.36,30.18,6,0,0,0.00
2013-11-26,46,35,26,33,27,18,87,74,50,30.34,30.12,24,3,0,0.00
2013-11-27,37,27,18,18,14,12,79,60,38,30.46,30.33,9,1,0,0.00
2013-11-28,53,37,23,31,23,15,83,59,41,30.45,30.29,12,1,0,0.00
2013-11-29,55,39,25,34,26,21,89,64,31,30.52,30.31,10,1,0,0.00
2013-11-30,56,45,33,44,37,26,88,73,61,30.33,30.11,13,2,0,0.00
2013-12-1,55,49,41,51,45,38,89,88,85,30.11,29.86,4,0,0,0.00
2013-12-2,64,48,39,52,43,36,90,83,58,29.86,29.63,6,0,0,0.00
2013-12-3,68,52,37,53,45,34,90,80,45,29.65,29.49,9,1,0,0.00
2013-12-4,61,46,33,51,42,30,89,83,61,29.94,29.51,14,1,0,0.01
2013-12-5,33,25,20,30,20,17,89,83,68,30.31,29.94,12,2,0,0.00
2013-12-6,20,18,14,18,15,9,96,86,76,30.60,30.27,15,3,0,0.00
2013-12-7,25,17,1,14,9,-2,85,71,53,30.69,30.33,5,1,0,0.04
2013-12-8,29,26,22,26,22,13,89,86,68,30.34,30.03,7,1,0,0.00
2013-12-9,28,24,21,25,19,15,89,80,67,30.37,30.20,13,2,0,0.00
2013-12-10,33,23,14,20,16,11,89,75,53,30.47,30.30,6,1,0,0.02
2013-12-11,38,24,13,26,18,10,89,77,59,30.66,30.30,9,1,0,0.12
2013-12-12,41,26,12,24,17,8,89,70,45,30.64,30.29,11,1,0,0.12
2013-12-13,37,34,25,34,30,20,89,84,71,30.28,29.84,7,1,0,0.55
2013-12-14,36,32,25,33,29,22,90,89,87,30.26,29.83,13,2,0,0.29
2013-12-15,49,34,20,36,28,18,90,78,58,30.29,30.12,11,1,0,0.01
2013-12-16,61,47,38,38,34,32,80,63,39,30.14,30.03,14,1,0,0.00
2013-12-17,59,43,30,40,32,26,88,69,38,30.32,30.11,11,1,0,0.00
2013-12-18,62,46,30,41,34,26,92,65,40,30.27,29.92,12,2,0,0.00
2013-12-19,62,56,52,56,49,40,84,77,61,29.92,29.67,19,5,0,0.00
2013-12-20,63,45,32,58,41,30,90,87,78,29.88,29.66,11,2,0,0.11
2013-12-21,39,36,32,37,33,30,90,90,90,29.81,29.49,13,0,0,0.94
2013-12-22,34,30,26,32,27,22,90,89,85,30.38,29.72,12,2,0,0.00
2013-12-23,30,24,16,23,20,13,89,85,72,30.62,30.38,9,1,0,0.00
2013-12-24,42,28,16,30,22,13,90,77,57,30.61,30.28,9,2,0,0.01
2013-12-25,44,32,23,35,28,20,89,83,69,30.42,30.27,10,0,0,0.00
2013-12-26,51,34,20,35,26,17,90,73,43,30.44,30.31,12,1,0,0.00
2013-12-27,57,39,26,37,29,24,89,71,40,30.43,30.30,12,1,0,0.00
2013-12-28,55,41,26,39,30,23,95,68,40,30.30,29.92,12,1,0,0.00
2013-12-29,42,30,21,38,25,15,87,81,77,30.30,29.92,12,2,0,0.00
2013-12-30,38,26,14,25,19,10,92,76,56,30.39,30.23,9,1,0,0.00
2013-12-31,55,35,19,32,24,16,89,67,36,30.42,30.15,13,1,0,0.00
2014-1-1,55,41,23,37,28,20,86,62,40,30.15,29.86,14,2,0,0.00
2014-1-2,27,18,11,19,11,7,87,74,57,30.52,30.15,12,2,0,0.00